This is the latest recevied weather packets stored in our database for station/object KB9YVI-11. If no packets are shown the sender has not sent any weather packets the latest 10 day(s).
| Time | Temp. | Humidity | Pressure | Rain* | Wind** | Luminosity | Snow |
|---|---|---|---|---|---|---|---|
| 1788121325 | 32.22° C | 75% | 0 hPa | 0 mm | - | - | - |
| 1788120426 | 32.22° C | 73% | 0 hPa | 0 mm | - | - | - |
| 1788119826 | 32.78° C | 76% | 0 hPa | 0 mm | - | - | - |
| 1788119228 | 32.22° C | 75% | 0 hPa | 0 mm | - | - | - |
| 1788118927 | 32.22° C | 74% | 0 hPa | 0 mm | - | - | - |
| 1788118027 | 32.22° C | 74% | 0 hPa | 0 mm | - | - | - |
| 1788117725 | 32.22° C | 74% | 0 hPa | 0 mm | - | - | - |
| 1788117427 | 32.22° C | 75% | 0 hPa | 0 mm | - | - | - |
| 1788117127 | 32.22° C | 75% | 0 hPa | 0 mm | - | - | - |
| 1788115627 | 31.67° C | 77% | 0 hPa | 0 mm | - | - | - |
| 1788114727 | 31.11° C | 79% | 0 hPa | 0 mm | - | - | - |
| 1788114427 | 31.11° C | 77% | 0 hPa | 0 mm | - | - | - |
| 1788114126 | 31.11° C | 78% | 0 hPa | 0 mm | - | - | - |
| 1788113827 | 31.11° C | 80% | 0 hPa | 0 mm | - | - | - |
| 1788113228 | 31.11° C | 78% | 0 hPa | 0 mm | - | - | - |
| 1788112927 | 31.11° C | 79% | 0 hPa | 0 mm | - | - | - |
| 1788112627 | 31.11° C | 79% | 0 hPa | 0 mm | - | - | - |
| 1788112333 | 31.11° C | 81% | 0 hPa | 0 mm | - | - | - |
| 1788111727 | 31.11° C | 81% | 0 hPa | 0 mm | - | - | - |
| 1788111427 | 31.11° C | 81% | 0 hPa | 0 mm | - | - | - |
| 1788111128 | 30.56° C | 82% | 0 hPa | 0 mm | - | - | - |
| 1788110827 | 30.56° C | 82% | 0 hPa | 0 mm | - | - | - |
| 1788110526 | 30° C | 82% | 0 hPa | 0 mm | - | - | - |
| 1788109628 | 29.44° C | 84% | 0 hPa | 0 mm | - | - | - |
| 1788109327 | 30° C | 83% | 0 hPa | 0 mm | - | - | - |
* Rain latest hour (hover to see other rain measurements)
** Current wind speed in m/s (hover to see current wind gust speed)